Погода в Тихвине

Погода в Тихвине : погода сейчас, прогноз погоды и архив. Всё, что Вы хотите узнать о погоде в Тихвине!

Хотите узнать прогноз погоды в Тихвине? Тогда Вам сюда: Погода в Тихвине

Поиск расширенной информации на нашем сайте:

Полезная информация:

Другие новости

Новости СМИ2

Главная страница сайта

Новости сайта

03.07.2017

Напоминаем, что на нашем специализированном сайте Метеоцентр.Азия вы можете получить высокодетализированные автоматические прогнозы погоды по пунктам России, СНГ и мира в авиационном формате (включающие направление и скорость ветра, видимость, явления погоды, количество и форму облачности, нижнюю и верхнюю границу облачности).

Рекомендуем:

Погода в Тихвине - сегодня

Время (UTC), дата Ветер
(°,м/с) 
Видим.   Явления Облачность Т
(°С)
Тd
(°С)
f(%) Тe
(°С)
Pmin
(гПа)
dP
(гПа)
Po
(мм)
O2
(г/м3)
Тmin Tmax R s Состояние
почвы
09 15.09.19 190 (Ю) 30000 м    10/0 средняя 
[Ac und]
+9 +6.4 84 +9  1008.2  -2.6  751  292           
12 15.09.19 180 (Ю) 9000 м  слаб. дождь  10/10 870 м 
[Ns]
+8.8 +7.1 89 +8  1004.3  -3.9  748  291           
15 15.09.19 160 (Ю) 9000 м  слаб. дождь  10/10 930 м 
[Ns]
+7.8 +7.4 97 +7  997.7  -6.6  743  290         
18 15.09.19 170 (Ю) 4000 м  слаб. дождь  10/10 330 м 
[Frnb|Ns]
+8.4 +8 97 +8  991  -6.5  738  287    +10     
21 15.09.19 220 (ЮЗ) 20000 м  {дождь}  9/9 900 м 
[Sc]
+9.8 +9.4 97 +10  988.8  -2.2  736  285           
00 16.09.19 230 (ЮЗ) 20000 м  {дождь}  9/9 660 м 
[Sc]
+9.8 +9 95 +9  988.8  736  285           
03 16.09.19 230 (ЮЗ) 3{10}  20000 м    9/9 540 м 
[Sc]
+9.5 +8.3 92 +9  988.6  -0.2  736  285  +7.8       
06 16.09.19 230 (ЮЗ) 20000 м  {дождь}  8/5 600 м средняя 
[Sc|Ac trans]
+9.6 +8.4 92 +9  987.8  -0.8  735  285  +8.5      влажная 
09 16.09.19 230 (ЮЗ) 4{10}  25000 м    8/8 750 м кучево-дожд. 
[Cb calv]
+12.4 +7.2 71 +12  987.2  -0.5  735  282           
12 16.09.19 210 (ЮЗ) 2{10}  20000 м  {ливн. осадки}  9/3 600 м кучево-дожд., средняя, верхняя 
[Cb calv|Ac trans|Ci fib]
+11.1 +8.7 85 +11  987  -0.3  735  283           
15 16.09.19 250 (З) 2{10}  20000 м  в посл. час ливневой дождь  9/6 600 м кучево-дожд., средняя 
[Cb cap|Ac trans]
+9 +7.7 92 +9  987.2  0.2  735  285         
18 16.09.19 260 (З) 10 км  слаб. дождь{ливн. осадки}  10/10 420 м 
[Frnb|Ns]
+8.6 +8.2 97 +8  987.9  0.7  736  286    +14.2     
21 16.09.19 270 (З) 20000 м    10/10 540 м 
[Sc]
+7.6 +7.2 97 +8  990  2.1  737  288           
00 17.09.19 240 (ЮЗ) 20000 м  {дождь}  10/10 360 м 
[St]
+7.3 +7.1 99 +7  990.9  0.9  738  288           
03 17.09.19 250 (З) 4000 м  слаб. дождь  10/10 330 м 
[Frnb|Ns]
+7.2 +7 99 +7  990.9  738  288  +6.8       
06 17.09.19 240 (ЮЗ) 5000 м  слаб. дождь  10/10 300 м 
[Frnb|Ns]
+7.8 +6.9 94 +8  991.2  0.3  738  288  +6.8      влажная 
09 17.09.19 260 (З) 17000 м  {дождь}  10/8 360 м средняя 
[St|As op]
+9 +8.2 95 +9  992.3  739  287           
12 17.09.19 260 (З) 18000 м  в посл. час дождь  9/9 600 м 
[Sc]
+10.3 +9.3 94 +11  993.7  1.4  740  286           
15 17.09.19 330 (СЗ) 9000 м  слаб. дождь  9/9 400 м 
[Frnb]
+8.5 +7.4 93 +10  994.5  0.8  740  288         
18 17.09.19 240 (ЮЗ) 4000 м  дымка{дождь}  1/1 600 м 
[Sc]
+6.2 +6.2 100 +7  995.4  0.7  741  291    +10.5     
21 17.09.19 тихо ()   0500 м  туман  ?/?  
+5.6 +5.6 100 +6  995.9  0.5  741  292           
00 18.09.19 250 (З) 2000 м  дымка{туман}  10/10 150 м 
[St]
+5.5 +5.5 100 +6  995.9  741  292           
03 18.09.19 тихо ()   10 км    10/10 210 м 
[St]
+5.6 +5.6 100 +6  996.5  0.6  742  292  +4.8       
06 18.09.19 310 (СЗ) 12000 м    10/10 330 м 
[St]
+7 +6.8 99 +8  997.4  1.1  743  291  +4.8        влажная 
09 18.09.19 010 (С) 9000 м  слаб. дождь  10/10 360 м 
[Frnb|Ns]
+9.4 +7.3 87 +9  998.9  1.5  744  288           
Время (UTC), дата Ветер
(°,м/с) 
Видим.   Явления Облачность Т
(°С)
Тd
(°С)
f(%) Тe
(°С)
Pmin
(гПа)
dP
(гПа)
Po
(мм)
O2
(г/м3)
Тmin Tmax R s Состояние
почвы

Для получения пояснительной информации подведите курсор к названию столбца.

ПОГОДА в Тихвине - архив

Всё, что Вы хотите узнать о погоде в Тихвине - удобно и подробно!

Выберите нужную дату (начиная с 1 января 2018* года) и нажмите кнопку "Найти".
Будут отображены архивные сводки погоды по пункту Тихвин, начиная с указанной даты.


Отображать данные в формате CSV (для использования в таблицах Excel)


Внимание! Наш архив погоды предназначен исключительно для личного некоммерческого использования в познавательных целях. Если Вам необходимы официальные справки о состоянии погоды (для производственных, юридических, коммерческих и т.п. целей), обращайтесь в органы Росгидромета.

*Примечание: данная дата относится к архиву по метеостанциям СССР (Россия, СНГ, Балтия).
Архив по метеостанциям Зарубежной Европы и Азии (кроме Китая) хранится 10 дней, по другим регионам земного шара (Китай, Африка, Америка, Австралия, Океания) - 1 день.

Тихвин - район местоположения метеостанции


Название, широта, долгота, высота метеостанции:
Тихвин 59.6°ш. 33.6°д. 61 м над ур. моря [Российская Федерация]

Дополнительная информация

В oтличие oт бoльшинства пoгoдных сайтoв мы публикуем пoдрoбную метеoинфoрмацию в детальнoм прoфессиoнальнoм фoрмате.

Характеристики температуры и влажнoсти вoздуха измеряются на высoте 2 м в тени вдали oт зданий и деревьев.
Скoрoсть ветра измеряется на высoте 10 м (на урoвне рoста челoвека скoрoсть ветра ниже в 1.5-2 раза). Если метеoстанция нахoдится в гoрoде или в лесу, тo скoрoсть ветра занижена на 2-4 м/с пo сравнению с oткрытым местoм. Скoрoсть ветра над акватoриями крупных рек и oзёр, а также на вершинах хoлмoв на 2-5 м/с выше, чем в oбычных услoвиях.
Атмoсфернoе давление в разных тoчках местнoсти мoжет значительнo oтличаться oт давления на метеoстанции, в зависимoсти oт услoвий рельефа (при пoдъёме на 10 м давление пoнижается примернo на 1 мм рт.ст.).